Regional Weather Roundup
Issued by NWS

Home | Current Version | Previous Version | Graphics & Text | Print | Product List | Glossary On
Versions: 1 2 3 4 5 6 7 8 9 10 11 12 13 14 15 16 17 18 19 20 21 22 23 24 25 26 27 28 29 30 31 32 33 34 35 36 37 38 39 40 41 42 43 44 45 46 47 48 49 50
000
ASUS43 KLOT 100000
RWRIL

ILLINOIS REGIONAL WEATHER ROUNDUP
NATIONAL WEATHER SERVICE CHICAGO/ROMEOVILLE IL
700 PM CDT WED JUL 09 2014

NOTE: "FAIR" INDICATES FEW OR NO CLOUDS BELOW 12,000 FEET WITH NO
SIGNIFICANT WEATHER AND/OR OBSTRUCTIONS TO VISIBILITY.

* THESE STATIONS ARE NOT UNDER NWS QUALITY CONTROL. THEY ALSO MAY NOT
  REPORT WEATHER SUCH AS PRECIPITATION OR FOG.

ILZ001-002-007-009-015-016-024-100100-
NORTHWEST ILLINOIS

CITY           SKY/WX    TMP DP  RH WIND       PRES   REMARKS
MOLINE         PTSUNNY   75  54  47 NW5       30.01S
6HR MIN TEMP:  75; 6HR MAX TEMP:  80;

STERLING*      MOSUNNY   75  55  50 N9        30.02R
$$

ILZ003-004-008-010-011-017-018-100100-
NORTH CENTRAL ILLINOIS

CITY           SKY/WX    TMP DP  RH WIND       PRES   REMARKS
ROCKFORD       MOSUNNY   75  50  41 N9        30.02S
6HR MIN TEMP:  73; 6HR MAX TEMP:  78;

FREEPORT*      MOSUNNY   71  54  54 N8        30.04S
$$

ILZ005-006-012>014-019>023-100100-
NORTHEAST ILLINOIS

CITY           SKY/WX    TMP DP  RH WIND       PRES   REMARKS
CHICAGO-OHARE  MOSUNNY   76  48  37 NW12      29.99R
6HR MIN TEMP:  75; 6HR MAX TEMP:  80;

CHICAGO-MIDWAY MOSUNNY   76  58  53 NE8       29.98R
6HR MIN TEMP:  75; 6HR MAX TEMP:  81;

AURORA         SUNNY     74  53  48 N8        30.01R
6HR MIN TEMP:  74; 6HR MAX TEMP:  78;

WAUKEGAN       MOSUNNY   66  58  75 E5        30.00R
6HR MIN TEMP:  65; 6HR MAX TEMP:  77;

DUPAGE AIRPORT SUNNY     75  49  39 N13       30.00R
6HR MIN TEMP:  75; 6HR MAX TEMP:  80;

WHEELING       MOSUNNY   75  50  41 NW12      30.00R
6HR MIN TEMP:  74; 6HR MAX TEMP:  80;

NORTHERLY ISL    N/A     68  59  73 E5          N/A
$$

LMZ740>746-100100-
SOUTHERN LAKE MICHIGAN

STATION/POSITION SKY/WX   TEMP    WIND        PRES    VSBY  WAVE
                          AIR SEA DIR/SP/G                  HT/PER
                          (F)     (DEG/KT/KT) (MB)    (MI)  (FT/S)
SOUTHERN BUOY              60 58   CALM  /  2 1016.0R         0
WAUKEGAN HARBOR            63      30/  3/  5 1017.3R
HARRISON CRIB              67      80/  7/  8   N/A
BURNHAM HARBOR             69      60/  5/  7   N/A
CALUMET HARBOR             68      50/  6/  6 1016.4R
MICHIGAN CITY              69      20/  8/  9   N/A
$$

ILZ025>027-034>036-040-047-049-050-058-095>099-100100-
WEST-CENTRAL ILLINOIS

CITY           SKY/WX    TMP DP  RH WIND       PRES   REMARKS
QUINCY         MOSUNNY   76  56  49 N6        30.03S
MACOMB*        MOSUNNY   75  57  52 N7        30.05S
$$

ILZ028>032-037-038-041>044-048-051>054-059>061-100100-
CENTRAL ILLINOIS

CITY           SKY/WX    TMP DP  RH WIND       PRES   REMARKS
DECATUR        SUNNY     78  55  44 NW13      30.01R
PEORIA         SUNNY     77  55  46 NW6       30.02R
6HR MIN TEMP:  77; 6HR MAX TEMP:  81;

SPRINGFIELD    MOSUNNY   79  58  48 N8        30.02R HX  80
6HR MIN TEMP:  78; 6HR MAX TEMP:  82;

TAYLORVILLE    NOT AVBL
$$

ILZ033-039-045-046-055>057-062-063-100100-
EAST-CENTRAL ILLINOIS

CITY           SKY/WX    TMP DP  RH WIND       PRES   REMARKS
CHAMPAIGN      SUNNY     76  59  55 NW7       30.00S
MATTOON        SUNNY     77  57  50 NW10      29.99R
$$

ILZ079-100>102-100100-
SOUTHWEST ILLINOIS

CITY           SKY/WX    TMP DP  RH WIND       PRES   REMARKS
ALTON          SUNNY     77  61  57 N9        30.01R
BELLEVILLE     SUNNY     81  62  51 N10       29.98S HX  82
CAHOKIA*       SUNNY     82  56  40 N16       29.99S HX  82
SPARTA*        PTSUNNY   77  64  65 NE5       29.99S
$$

ILZ064>066-069>071-074>076-080>082-084>086-088>090-092>094-100100-
SOUTH-CENTRAL ILLINOIS

CITY           SKY/WX    TMP DP  RH WIND       PRES   REMARKS
CARBONDALE     MOSUNNY   81  63  54 NW3       29.97S HX  82
6HR MIN TEMP:  81; 6HR MAX TEMP:  86;

MT. VERNON     SUNNY     81  63  54 CALM      29.99R HX  82
$$

ILZ067-068-072-073-078-083-087-091-100100-
SOUTHEAST ILLINOIS

CITY           SKY/WX    TMP DP  RH WIND       PRES   REMARKS
ROBINSON*      SUNNY     82  63  53 N7        29.97S HX  83
$$

ABBREVIATIONS USED IN REMARKS
   TC - TEMPERATURE IN CELSIUS
  WCI - WIND CHILL INDEX
   HX - HEAT INDEX
  VSB - VISIBILITY
$$



USA.gov is the U.S. government's official web portal to all federal, state and local government web resources and services.